Location: Clair
(33.8067°N, 117.9845°W)
Time: 18:01:16
(UTC+00:00)

Exosat Rocket - Pass Details

Date: 14 February 2026
Orbit: 761 x 2512 km, 72.3° (Epoch: 8 March)

Event Time Altitude Azimuth Distance (km) Brightness Sun altitude
Exits shadow 13:14:21 - 335° (NNW) 3,030 6.3 -17.8°
Reaches altitude 10° 13:15:53 10° 333° (NNW) 2,406 5.8 -17.5°
Maximum altitude 13:20:59 60° 254° (WSW) 869 3.5 -16.4°
Drops below altitude 10° 13:25:57 10° 175° (S) 2,339 6.1 -15.4°
Sets 13:28:25 0° 172° (S) 3,351 7.0 -14.9°
